FW6014 Weather Reports


time (UTC)temp
C
wind
direction
speed
KPH
gust
KPH
rain 1hr
cm
rain 24hr
cm
rain mn
cm
humidity
%
barometer
mb
20260505200037 26 278 3.2 20.9 0.00 0.00 0.00 35 1003.2
20260505195630 26 278 8.0 20.9 0.00 0.00 0.00 34 1003.5
20260505195129 26 277 8.0 22.5 0.00 0.00 0.00 34 1003.5
20260505194639 26 277 8.0 22.5 0.00 0.00 0.00 35 1003.3
20260505194631 26 277 9.7 22.5 0.00 0.00 0.00 35 1003.4
20260505194130 26 0.0 0.0 0.00 0.00 0.00 34 1003.6
20260505193630 26 0.0 0.0 0.00 0.00 0.00 35 1003.9
20260505193042 26 276 8.0 22.5 0.00 0.00 0.00 36 1003.6
20260505193016 26 277 8.0 22.5 0.00 0.00 0.00 36 1003.7
20260505192016 26 278 8.0 20.9 0.00 0.00 0.00 34 1003.6
20260505191631 26 278 8.0 20.9 0.00 0.00 0.00 35 1003.8
20260505191517 26 278 9.7 35.4 0.00 0.00 0.00 35 1003.8
20260505191017 26 277 8.0 35.4 0.00 0.00 0.00 36 1003.9
20260505190509 27 276 8.0 22.5 0.00 0.00 0.00 35 1003.9
20260505185507 26 276 9.7 24.1 0.00 0.00 0.00 35 1003.8
20260505185006 26 276 8.0 24.1 0.00 0.00 0.00 35 1003.9
20260505184632 26 276 8.0 30.6 0.00 0.00 0.00 37 1004.1
20260505184505 26 276 8.0 30.6 0.00 0.00 0.00 36 1004.2
20260505184003 26 276 9.7 30.6 0.00 0.00 0.00 36 1004.2
20260505183502 26 274 8.0 24.1 0.00 0.00 0.00 36 1004.1
20260505182501 26 274 8.0 22.5 0.00 0.00 0.00 39 1004.4
20260505182001 26 274 8.0 30.6 0.00 0.00 0.00 37 1004.6
20260505181622 26 274 6.4 30.6 0.00 0.00 0.00 38 1004.5
20260505181500 26 274 9.7 30.6 0.00 0.00 0.00 38 1004.6
20260505181001 26 276 8.0 19.3 0.00 0.00 0.00 39 1004.7
20260505180502 26 276 6.4 19.3 0.00 0.00 0.00 40 1004.8
20260505180031 25 276 6.4 19.3 0.00 0.00 0.00 40 1004.9
20260505180001 25 276 6.4 19.3 0.00 0.00 0.00 41 1004.9
20260505175502 25 276 8.0 24.1 0.00 0.00 0.00 41 1004.8
20260505174620 25 276 9.7 24.1 0.00 0.00 0.00 40 1005.1
20260505174502 25 276 8.0 24.1 0.00 0.00 0.00 40 1004.9
20260505174001 25 276 8.0 24.1 0.00 0.00 0.00 42 1005.0
20260505173501 25 276 6.4 16.1 0.00 0.00 0.00 42 1005.1
20260505173006 25 276 6.4 16.1 0.00 0.03 0.00 42 1005.3
20260505173001 25 276 6.4 16.1 0.00 0.00 0.00 42 1005.2
20260505172001 25 276 8.0 27.4 0.00 0.00 0.00 41 1005.7
20260505171604 24 276 11.3 27.4 0.00 0.03 0.00 41 1005.7
20260505171501 25 276 6.4 22.5 0.00 0.00 0.00 41 1005.9
20260505171001 25 276 6.4 19.3 0.00 0.00 0.00 42 1005.8
20260505170501 24 276 6.4 19.3 0.00 0.00 0.00 42 1005.8
20260505170012 23 276 6.4 29.0 0.00 0.03 0.00 43 1005.9
20260505170002 24 276 6.4 29.0 0.00 0.00 0.00 43 1005.9
20260505165501 23 276 6.4 29.0 0.00 0.00 0.00 46 1006.1
20260505164602 23 276 4.8 17.7 0.00 0.03 0.00 44 1006.0
20260505164501 23 276 6.4 19.3 0.00 0.00 0.00 42 1006.1
20260505163502 23 277 6.4 19.3 0.00 0.03 0.00 45 1006.1
20260505162001 22 277 6.4 16.1 0.00 0.03 0.00 47 1006.5
20260505161602 22 277 6.4 16.1 0.00 0.05 0.00 45 1006.6
20260505161501 22 277 6.4 16.1 0.00 0.03 0.00 45 1006.7
20260505161001 22 277 6.4 16.1 0.00 0.05 0.00 45 1006.6
20260505153156 22 277 3.2 12.9 0.00 0.05 0.00 45 1007.1
20260505152953 22 277 6.4 16.1 0.00 0.05 0.00 45 1007.1
20260505151953 22 277 8.0 20.9 0.00 0.05 0.00 45 1007.2
20260505151556 21 277 6.4 16.1 0.00 0.05 0.00 45 1007.4
20260505151454 22 277 6.4 16.1 0.00 0.05 0.00 44 1007.3
20260505150954 22 277 6.4 17.7 0.00 0.05 0.00 46 1007.3
20260505150454 22 277 6.4 17.7 0.00 0.05 0.00 45 1007.2
20260505150158 21 277 3.2 16.1 0.00 0.05 0.00 47 1007.4
20260505140440 20 277 4.8 14.5 0.00 0.05 0.00 49 1007.4
20260505140142 19 277 4.8 14.5 0.00 0.05 0.00 48 1007.5
20260505130129 17 276 0.0 12.9 0.00 0.05 0.00 55 1008.4
20260505124929 16 276 3.2 14.5 0.00 0.05 0.00 56 1008.2
20260505124532 16 276 3.2 14.5 0.00 0.05 0.00 57 1008.6
20260505124430 16 276 4.8 14.5 0.00 0.05 0.00 56 1008.3
20260505123930 16 276 1.6 11.3 0.00 0.05 0.00 58 1008.3
20260505123429 16 276 1.6 6.4 0.00 0.05 0.00 59 1008.1
20260505123134 15 276 0.0 6.4 0.00 0.05 0.00 59 1008.4
20260505122928 15 276 1.6 6.4 0.00 0.05 0.00 61 1008.1
20260505121930 14 276 1.6 6.4 0.00 0.05 0.00 61 1008.1
20260505121653 13 276 1.6 9.7 0.00 0.05 0.00 61 1008.5
20260505120928 14 276 3.2 9.7 0.00 0.05 0.00 62 1008.2
20260505120128 13 276 3.2 8.0 0.00 0.05 0.00 62 1008.6
20260505115932 13 276 1.6 11.3 0.00 0.05 0.00 62 1008.3
20260505115430 13 276 1.6 11.3 0.00 0.05 0.00 62 1008.3
20260505114929 13 276 3.2 9.7 0.00 0.05 0.00 63 1008.3
20260505114513 13 276 1.6 9.7 0.00 0.05 0.00 64 1008.8
20260505114431 13 276 3.2 14.5 0.00 0.05 0.00 64 1008.4
20260505113930 13 276 3.2 14.5 0.00 0.05 0.00 64 1008.3
20260505113428 13 276 3.2 9.7 0.00 0.05 0.00 65 1008.4
20260505113105 12 276 1.6 9.7 0.00 0.05 0.00 65 1008.8
20260505112929 12 276 3.2 9.7 0.00 0.05 0.00 66 1008.4
20260505112429 12 276 1.6 9.7 0.00 0.05 0.00 67 1008.4
20260505111929 12 276 1.6 9.7 0.00 0.05 0.00 67 1008.3
20260505111505 11 276 0.0 9.7 0.00 0.05 0.00 69 1008.7
20260505111430 11 276 1.6 9.7 0.00 0.05 0.00 69 1008.3
20260505110929 11 276 1.6 6.4 0.00 0.05 0.00 71 1008.4
20260505110429 11 276 0.0 3.2 0.00 0.05 0.00 72 1008.5
20260505101929 8 276 0.0 0.0 0.00 0.05 0.00 80 1008.3
20260505101503 8 276 0.0 0.0 0.00 0.05 0.00 80 1008.7
20260505101428 8 276 0.0 0.0 0.00 0.05 0.00 79 1008.3
20260505100930 8 276 0.0 0.0 0.00 0.05 0.00 79 1008.2
20260505100430 8 276 0.0 0.0 0.00 0.05 0.00 80 1008.2
20260505100110 8 276 0.0 0.0 0.00 0.05 0.00 80 1008.6
20260505095928 8 276 0.0 0.0 0.00 0.05 0.00 80 1008.2
20260505095429 8 276 0.0 0.0 0.00 0.05 0.00 79 1008.1
20260505094928 8 276 0.0 0.0 0.00 0.05 0.00 78 1008.2
20260505094659 8 276 0.0 0.0 0.00 0.05 0.00 79 1008.6
20260505094428 8 276 0.0 0.0 0.00 0.05 0.00 78 1008.1
20260505093928 8 276 0.0 0.0 0.00 0.05 0.00 78 1008.2
20260505093429 9 276 0.0 0.0 0.00 0.05 0.00 77 1008.2
20260505093158 9 276 0.0 0.0 0.00 0.05 0.00 76 1008.5
20260505092429 9 276 0.0 0.0 0.00 0.05 0.00 76 1007.9
20260505091931 9 276 0.0 0.0 0.00 0.05 0.00 75 1008.1
20260505091650 9 276 0.0 0.0 0.00 0.05 0.00 75 1008.5
20260505091430 10 276 0.0 0.0 0.00 0.05 0.00 74 1008.1
20260505090931 10 276 0.0 0.0 0.00 0.05 0.00 75 1008.1
20260505090429 10 276 0.0 4.8 0.00 0.05 0.00 74 1008.1
20260505090047 10 276 0.0 4.8 0.00 0.05 0.00 74 1008.6
20260505085930 10 276 1.6 4.8 0.00 0.05 0.00 73 1008.2
20260505085428 10 276 1.6 4.8 0.00 0.05 0.00 72 1008.0
20260505084929 10 276 0.0 4.8 0.00 0.05 0.00 72 1008.1
20260505084630 10 276 0.0 4.8 0.00 0.05 0.00 71 1008.6
20260505084430 10 276 0.0 4.8 0.00 0.05 0.00 72 1008.1
20260505083930 10 276 1.6 4.8 0.00 0.05 0.00 71 1008.1
20260505083429 10 276 1.6 4.8 0.00 0.05 0.00 71 1008.2
20260505083153 10 276 1.6 4.8 0.00 0.05 0.00 72 1008.7
20260505082430 10 276 0.0 3.2 0.00 0.05 0.00 73 1008.2
20260505081613 9 276 0.0 1.6 0.00 0.05 0.00 75 1009.0
20260505081429 9 276 0.0 1.6 0.00 0.05 0.00 75 1008.5
20260505080929 9 276 0.0 1.6 0.00 0.05 0.00 75 1008.5
20260505080430 9 276 0.0 0.0 0.00 0.05 0.00 75 1008.4
20260505080005 9 276 0.0 0.0 0.00 0.05 0.00 74 1009.0
20260505075931 10 276 0.0 0.0 0.00 0.05 0.00 74 1008.4
20260505075430 10 276 0.0 0.0 0.00 0.05 0.00 73 1008.5
20260505074930 10 276 0.0 0.0 0.00 0.05 0.00 73 1008.5
20260505074603 10 276 0.0 0.0 0.00 0.05 0.00 72 1008.9
20260505074430 10 276 0.0 0.0 0.00 0.05 0.00 71 1008.4
20260505073929 10 276 0.0 3.2 0.00 0.05 0.00 69 1008.3
20260505073430 11 276 1.6 6.4 0.00 0.05 0.00 68 1008.3
20260505073002 11 276 1.6 6.4 0.00 0.05 0.00 68 1008.9
20260505072929 11 276 1.6 6.4 0.00 0.05 0.00 68 1008.3
20260505072430 11 276 0.0 4.8 0.00 0.05 0.00 68 1008.4
20260505071930 11 276 0.0 8.0 0.00 0.05 0.00 68 1008.4
20260505071606 11 276 0.0 8.0 0.00 0.05 0.00 68 1009.0
20260505071429 11 276 0.0 8.0 0.00 0.05 0.00 68 1008.4
20260505070430 11 276 1.6 8.0 0.00 0.05 0.00 69 1008.4
20260505070149 10 276 0.0 8.0 0.00 0.05 0.00 69 1009.0
20260505064929 10 276 1.6 4.8 0.00 0.05 0.00 69 1008.5
20260505064703 10 276 0.0 3.2 0.00 0.05 0.00 69 1009.2
20260505063930 10 276 0.0 3.2 0.00 0.05 0.00 68 1008.6
20260505063430 10 276 0.0 3.2 0.00 0.05 0.00 67 1008.5
20260505063005 10 276 0.0 4.8 0.00 0.05 0.05 67 1009.1
20260505062930 11 276 0.0 4.8 0.00 0.05 0.00 66 1008.5
20260505061929 11 276 0.0 4.8 0.00 0.05 0.00 65 1008.4
20260505061605 11 276 0.0 6.4 0.00 0.05 0.05 65 1009.1
20260505061428 11 276 1.6 6.4 0.00 0.05 0.00 64 1008.4
20260505060929 11 276 1.6 6.4 0.00 0.05 0.00 65 1008.5
20260505060429 11 276 0.0 4.8 0.00 0.05 0.00 66 1008.4
20260505060149 11 276 0.0 4.8 0.00 0.05 0.05 66 1009.1
20260505055428 11 276 0.0 4.8 0.00 0.05 0.00 65 1008.5
20260505054927 11 276 1.6 6.4 0.00 0.05 0.00 64 1008.4
20260505054656 11 276 0.0 6.4 0.00 0.05 0.05 63 1009.1
20260505053925 11 276 1.6 6.4 0.00 0.05 0.00 63 1008.4
20260505053425 11 276 1.6 6.4 0.00 0.05 0.00 64 1008.4
20260505053156 11 276 1.6 6.4 0.00 0.05 0.05 63 1009.0
20260505052924 11 276 1.6 6.4 0.00 0.05 0.00 64 1008.4
20260505052426 11 276 3.2 8.0 0.00 0.05 0.00 66 1008.3
20260505051925 10 276 1.6 8.0 0.00 0.05 0.00 69 1008.4
20260505051650 9 276 1.6 4.8 0.00 0.05 0.05 73 1008.9
20260505050922 8 276 0.0 4.8 0.00 0.05 0.00 76 1008.4
20260505050153 7 276 0.0 0.0 0.00 0.05 0.05 79 1009.0
20260505041550 8 276 0.0 3.2 0.00 0.05 0.05 77 1008.6
20260505041405 9 276 0.0 3.2 0.00 0.05 0.00 78 1007.9
20260505040401 8 276 0.0 6.4 0.00 0.05 0.00 80 1007.9
20260505040132 8 276 0.0 3.2 0.00 0.05 0.05 80 1008.5
20260505035902 8 276 0.0 3.2 0.00 0.05 0.05 81 1007.9
20260505035401 8 276 0.0 0.0 0.00 0.05 0.05 82 1007.8
20260505034902 8 276 0.0 0.0 0.00 0.05 0.05 82 1007.9
20260505034524 8 276 0.0 0.0 0.00 0.05 0.05 81 1008.5
20260505034401 8 276 0.0 0.0 0.00 0.05 0.05 81 1007.9
20260505033902 8 276 0.0 0.0 0.00 0.05 0.05 80 1007.8
20260505033401 8 276 0.0 0.0 0.00 0.05 0.05 80 1007.8
20260505033117 8 276 0.0 0.0 0.00 0.05 0.05 80 1008.4
20260505032904 8 276 0.0 1.6 0.00 0.05 0.05 80 1007.6
20260505031504 8 276 0.0 0.0 0.00 0.05 0.05 81 1008.4
20260505031401 8 276 0.0 0.0 0.00 0.05 0.05 80 1007.7
20260505030902 9 276 0.0 1.6 0.00 0.05 0.05 80 1007.7
20260505030401 9 276 0.0 1.6 0.00 0.05 0.05 79 1007.8
20260505025900 9 276 0.0 0.0 0.00 0.05 0.05 79 1007.8
20260505025401 9 276 0.0 0.0 0.00 0.05 0.05 78 1007.8
20260505024904 9 276 0.0 0.0 0.00 0.05 0.05 77 1007.8
20260505024623 9 276 0.0 0.0 0.00 0.05 0.05 77 1008.6
20260505023901 9 276 0.0 0.0 0.00 0.05 0.05 77 1008.1
20260505023401 9 276 0.0 0.0 0.00 0.05 0.05 76 1008.1
20260505023054 9 276 0.0 0.0 0.00 0.05 0.05 76 1008.8
20260505022902 10 276 0.0 0.0 0.00 0.05 0.05 75 1008.1
20260505022403 10 276 0.0 0.0 0.00 0.05 0.05 75 1008.1
20260505021900 10 276 0.0 0.0 0.00 0.05 0.05 75 1008.1
20260505021647 10 276 0.0 0.0 0.00 0.05 0.05 75 1008.7
20260505021402 10 276 0.0 0.0 0.00 0.05 0.05 74 1008.2
20260505020400 10 276 0.0 0.0 0.00 0.05 0.05 73 1008.2
20260505020134 10 276 0.0 0.0 0.00 0.05 0.05 74 1008.8
20260505015355 11 276 0.0 0.0 0.00 0.05 0.05 73 1008.2
20260505014849 11 276 0.0 0.0 0.00 0.05 0.05 72 1008.2
20260505014632 11 276 0.0 0.0 0.00 0.05 0.05 71 1008.8
20260505014348 11 276 0.0 0.0 0.00 0.05 0.05 71 1008.1
20260505013847 11 276 0.0 0.0 0.00 0.05 0.05 70 1007.9
20260505013344 11 276 0.0 0.0 0.00 0.05 0.05 70 1007.9
20260505013019 11 276 0.0 0.0 0.00 0.05 0.05 69 1008.5
20260505012843 11 276 0.0 0.0 0.00 0.05 0.05 70 1007.8
20260505011838 12 276 0.0 0.0 0.00 0.05 0.05 70 1007.7
20260505011610 11 276 0.0 0.0 0.00 0.05 0.05 69 1008.4
20260505011337 12 276 0.0 0.0 0.00 0.05 0.05 68 1007.6
20260505010834 12 276 0.0 1.6 0.00 0.05 0.05 67 1007.5
20260505010331 12 276 0.0 1.6 0.00 0.05 0.05 67 1007.5
20260505010001 12 276 0.0 1.6 0.00 0.05 0.05 67 1008.2
20260505005831 12 276 0.0 1.6 0.00 0.05 0.05 68 1007.5
20260505005330 12 276 0.0 1.6 0.00 0.05 0.05 68 1007.5
20260505004830 13 276 0.0 1.6 0.00 0.05 0.05 66 1007.4
20260505004558 12 276 0.0 1.6 0.00 0.05 0.05 65 1008.1
20260505004328 13 276 0.0 1.6 0.00 0.05 0.05 64 1007.4
20260505003829 13 276 0.0 4.8 0.00 0.05 0.05 63 1007.4
20260505003326 13 276 1.6 4.8 0.00 0.05 0.05 61 1007.2
20260505003149 13 276 0.0 4.8 0.00 0.05 0.05 61 1007.9
20260505002824 13 276 0.0 3.2 0.00 0.05 0.05 59 1007.2
20260505001823 12 276 0.0 0.0 0.00 0.05 0.05 65 1007.1
20260505001545 12 276 0.0 0.0 0.00 0.05 0.05 65 1007.7
20260505001320 12 276 0.0 0.0 0.00 0.05 0.05 64 1007.0
20260505000817 13 276 0.0 0.0 0.00 0.05 0.05 64 1006.8
20260505000318 13 276 0.0 0.0 0.00 0.05 0.05 66 1006.7
20260505000141 13 276 0.0 0.0 0.00 0.05 0.05 63 1007.5
20260504235817 13 276 0.0 0.0 0.00 0.05 0.05 62 1006.7
20260504235316 13 276 0.0 0.0 0.00 0.05 0.05 62 1006.6
20260504234815 14 276 0.0 0.0 0.00 0.05 0.05 59 1006.5
20260504234527 14 276 0.0 0.0 0.00 0.05 0.05 55 1007.2
20260504234311 14 276 0.0 1.6 0.00 0.05 0.05 55 1006.4
20260504233310 15 276 1.6 3.2 0.00 0.05 0.05 52 1006.3
20260504233118 15 276 0.0 3.2 0.00 0.05 0.05 55 1006.9
20260504232809 15 276 1.6 3.2 0.00 0.05 0.05 54 1006.2
20260504232309 15 276 0.0 3.2 0.00 0.05 0.05 53 1006.2
20260504231809 15 276 0.0 0.0 0.00 0.05 0.05 55 1006.1
20260504231513 15 276 0.0 6.4 0.00 0.05 0.05 54 1006.7
20260504231309 15 276 0.0 6.4 0.00 0.05 0.05 53 1006.1
20260504230308 16 276 0.0 0.0 0.00 0.05 0.05 53 1006.0
20260504230108 16 276 0.0 1.6 0.00 0.05 0.05 52 1006.6
20260504225808 17 276 0.0 3.2 0.00 0.05 0.05 51 1006.0
20260504225308 17 276 0.0 3.2 0.00 0.05 0.05 48 1006.0
20260504224510 17 276 0.0 3.2 0.00 0.05 0.05 46 1006.6
20260504224309 17 276 0.0 4.8 0.00 0.05 0.05 46 1005.8
20260504223809 17 276 1.6 4.8 0.00 0.05 0.05 43 1005.7
20260504223303 17 276 1.6 4.8 0.00 0.05 0.05 46 1005.7
20260504223026 17 276 0.0 4.8 0.00 0.05 0.05 46 1006.4
20260504222301 18 276 1.6 8.0 0.00 0.05 0.05 43 1005.7
20260504221801 18 276 1.6 8.0 0.00 0.05 0.05 42 1005.7
20260504221516 17 276 1.6 6.4 0.00 0.05 0.05 42 1006.4
20260504221301 18 276 3.2 6.4 0.00 0.05 0.05 43 1005.8
20260504220801 18 276 1.6 9.7 0.00 0.05 0.05 42 1005.8
20260504220301 18 276 1.6 9.7 0.00 0.05 0.05 42 1005.8
20260504220110 18 276 0.0 6.4 0.00 0.05 0.05 41 1006.5
20260504215802 18 276 1.6 6.4 0.00 0.05 0.05 44 1005.8
20260504215301 18 276 1.6 8.0 0.00 0.05 0.05 45 1005.9
20260504214801 18 276 1.6 8.0 0.00 0.05 0.05 45 1005.9
20260504214506 17 276 1.6 8.0 0.00 0.05 0.05 45 1006.6
20260504214301 18 276 0.0 6.4 0.00 0.05 0.05 46 1005.8
20260504213801 17 276 0.0 3.2 0.00 0.05 0.05 45 1005.9
20260504213148 17 276 0.0 3.2 0.00 0.05 0.05 53 1006.7
20260504212801 17 276 0.0 3.2 0.00 0.05 0.05 53 1006.0
20260504212301 17 276 1.6 4.8 0.00 0.05 0.05 48 1006.0
20260504211802 17 276 1.6 4.8 0.00 0.05 0.05 47 1006.0
20260504211511 17 276 1.6 9.7 0.00 0.05 0.05 48 1006.8
20260504211301 17 276 1.6 9.7 0.00 0.05 0.05 48 1006.0
20260504210802 17 276 1.6 9.7 0.00 0.05 0.05 49 1006.0
20260504210301 17 276 0.0 6.4 0.00 0.05 0.05 47 1006.1
20260504210104 16 276 0.0 3.2 0.00 0.05 0.05 50 1006.8
20260504205803 17 276 1.6 4.8 0.00 0.05 0.05 49 1006.1
20260504205303 17 276 1.6 8.0 0.00 0.05 0.05 47 1006.0
20260504204802 17 276 1.6 8.0 0.00 0.05 0.05 47 1006.1
20260504204650 16 276 1.6 11.3 0.00 0.05 0.05 47 1006.7
20260504204302 17 276 3.2 11.3 0.00 0.05 0.05 49 1006.0
20260504203302 16 276 4.8 14.5 0.00 0.05 0.05 49 1006.1
20260504203056 16 276 8.0 14.5 0.00 0.05 0.05 48 1006.9
20260504202802 16 276 3.2 9.7 0.00 0.05 0.05 49 1006.2
20260504202304 16 276 3.2 12.9 0.00 0.05 0.05 50 1006.1
20260504201801 16 276 3.2 12.9 0.00 0.05 0.05 50 1006.1
20260504201642 16 276 3.2 9.7 0.00 0.05 0.05 50 1006.8